Location: Blackwater Beach
(38.5801°N, 75.1577°W)
Time: 02:27:27
(UTC+00:00)

Cosmos 2297 Rocket - Pass Details

Date: 19 May 2026
Orbit: 838 x 842 km, 71.0° (Epoch: 9 June)

Event Time Altitude Azimuth Distance (km) Brightness Sun altitude
Exits shadow 03:46:24 61° 44° (NE) 947 2.4 -29.3°
Drops below altitude 10° 03:51:05 10° 25° (NNE) 2,460 5.1 -29.6°
Sets 03:53:33 0° 25° (NNE) 3,399 6.0 -29.8°
